User: anonymous   Login
Location: Unspecified
(0.0000°N, 0.0000°E)
Time: 08:07:25
(UTC+00:00)
Language:

CORVUS BC2 - Orbit

View from above orbital plane
View from above orbital plane
View from above satellite
View from above satellite

Ground track
Ground track

The orbit data is extracted from the following two-line orbital elements,

1 42846U 17042X   17347.80888300  .00000316  00000-0  36691-4 0  9994
2 42846  97.6083 252.2227 0011185  93.1564 267.0935 14.91728779 22736
Epoch (UTC): 13 December 2017 19:24:47
Eccentricity: 0.0011185
inclination: 97.6083°
perigee height: 585 km
apogee height: 600 km
right ascension of ascending node: 252.2227°
argument of perigee: 93.1564°
revolutions per day: 14.91728779
mean anomaly at epoch: 267.0935°
orbit number at epoch: 2273

The dashed part of the orbit path shows where the satellite is in the earth's shadow,  

DLR